Regional Weather Roundup
Issued by NWS Cleveland, OH

Home | Current Version | Previous Version | Graphics & Text | Print | Product List | Glossary Off
Versions: 1 2 3 4 5 6 7 8 9 10 11 12 13 14 15 16 17 18 19 20 21 22 23 24 25 26 27 28 29 30 31 32 33 34 35 36 37 38 39 40 41 42 43 44 45 46 47 48 49 50

000
ASUS41 KCLE 220910
RWRCLE
OHIO REGIONAL WEATHER ROUNDUP
NATIONAL WEATHER SERVICE CLEVELAND, OH
400 AM EST SAT NOV 22 2014

NOTE: "FAIR" INDICATES FEW OR NO CLOUDS BELOW 12,000 FEET WITH NO
SIGNIFICANT WEATHER AND/OR OBSTRUCTIONS TO VISIBILITY.

OHZ001>008-015>018-024>027-034-035-043-044-221000-
   NORTHWEST OHIO

CITY           SKY/WX    TMP DP  RH WIND       PRES   REMARKS
DEFIANCE       CLOUDY    29  17  61 S9        30.23F WCI  20
FINDLAY        CLOUDY    28  16  60 S10       30.25F WCI  19
TOLEDO EXPRESS CLOUDY    23  13  65 S8        30.23F WCI  14
TOLEDO EXEC    CLOUDY    26  14  60 S10       30.26F WCI  16
LIMA           CLOUDY    32  17  54 S13       30.25F WCI  22
$$

OHZ009>014-019>023-028>033-038-089-221000-
   NORTHEAST OHIO

CITY           SKY/WX    TMP DP  RH WIND       PRES   REMARKS
CLE-HOPKINS    PTCLDY    25   9  50 S15       30.32F WCI  13
CLE-LAKEFRONT  PTCLDY    24   9  52 SE15G25   30.28F WCI  11
CUY CO. ARPT   NOT AVBL
LORAIN-ELYRIA  PTCLDY    21  10  62 S14       30.28F WCI   8
ASHTABULA      PTCLDY    17   7  64 S10       30.32F WCI   5
AKRON-CANTON   MOCLDY    20   9  62 S9        30.32F WCI   9
WOOSTER        MOCLDY   N/A N/A N/A S8        30.32F
MANSFIELD      CLOUDY    26  12  55 S15       30.28F WCI  14
YOUNGSTOWN     MOCLDY    21   9  59 S12       30.32F WCI   9
$$

OHZ042-051>053-060>062-070>072-077>081-221000-
  SOUTHWEST OHIO

CITY           SKY/WX    TMP DP  RH WIND       PRES   REMARKS
CINC-COVINGTON LGT RAIN  34  20  56 SW3       30.32S
CINC-LUNKEN    CLOUDY    31  19  61 W3        30.35F
HAMILTON       MIX PCPN  32  19  58 CALM      30.34F
DAYTON         FRZ DRZL  32  18  56 S13       30.30F WCI  22
WRIGHT-PAT AFB FRZ RAIN  29  17  62 SE2       30.31F
DAYTON GENERAL CLOUDY    32  17  54 S10       30.30F WCI  24
WILMINGTON     CLOUDY    32  16  51 S8        30.31F WCI  25
$$

OHZ036-037-039>041-045>050-054>059-063>069-073>076-082>088-221000-
  CENTRAL AND SOUTHEAST OHIO

CITY           SKY/WX    TMP DP  RH WIND       PRES   REMARKS
COLUMBUS       CLOUDY    26  10  50 S5        30.34F WCI  20
OSU AIRPORT    CLOUDY    25  12  58 S5        30.33F WCI  19
BOLTON FIELD   CLOUDY    24  14  64 S5        30.34F WCI  18
RICKENBACK AFB CLOUDY    22  14  70 CALM      30.34F
NEWARK         CLOUDY    15  10  80 CALM      30.34F
MARION         CLOUDY    25  12  58 S14       30.29F WCI  13
LANCASTER      CLOUDY    25  12  58 SE8       30.35F WCI  16
ZANESVILLE     PTCLDY    15   9  76 SE3       30.36F
NEW PHILLY     PTCLDY    19  10  68 SE6       30.38F WCI  11
$$


USA.gov is the U.S. government's official web portal to all federal, state and local government web resources and services.